Location: Dehesa de la Cepeda
(40.6574°N, 4.3013°W)
Time: 07:31:56
(UTC+00:00)

Courier 1B Rocket - Pass Details

Date: 06 August 2021
Orbit: 920 x 1202 km, 28.3° (Epoch: 26 September)

Event Time Altitude Azimuth Distance (km) Brightness Sun altitude
Exits shadow 01:59:15 11° 126° (SE) 2,673 7.2 -28.5°
Drops below altitude 10° 01:59:24 10° 125° (SE) 2,718 7.2 -28.5°
Sets 02:02:21 0° 114° (ESE) 3,633 8.0 -28.2°
